Total_Precipitation_Accumulation
0.67 0.66 0.68 0.63 0.61 0.64 0.70 0.87 1.09 0.92 0.47 0.32 0.37 0.37 0.39 0.44 0.51 0.53 0.54 0.66 0.75 0.79 0.82 0.89 1.00 1.10 1.26 1.56 2.13 2.89 3.50 3.89 3.85 3.58 3.35 3.34 3.62 4.02
0.80 0.79 0.76 0.74 0.75 0.74 0.76 0.81 0.98 1.17 0.87 0.38 0.38 0.43 0.48 0.51 0.57 0.57 0.56 0.66 0.72 0.83 0.91 0.93 1.00 1.10 1.21 1.36 1.60 2.12 2.81 3.35 3.73 3.90 3.85 3.78 3.86 4.11
0.86 0.88 0.87 0.87 0.91 0.90 0.92 0.92 0.97 1.15 1.15 0.55 0.37 0.43 0.56 0.61 0.61 0.59 0.58 0.62 0.64 0.73 0.86 0.93 1.01 1.10 1.17 1.29 1.44 1.70 2.22 2.76 3.24 3.75 4.09 4.12 4.05 4.05
0.88 0.94 0.94 0.95 0.98 0.99 1.04 1.04 1.02 1.05 1.16 0.85 0.50 0.48 0.56 0.62 0.68 0.68 0.62 0.62 0.63 0.69 0.81 0.93 1.00 1.07 1.13 1.21 1.32 1.51 1.80 2.30 2.72 3.07 3.56 3.84 3.89 4.07
0.83 0.90 0.95 1.02 1.06 1.04 1.06 1.06 1.01 0.95 0.99 0.98 0.69 0.54 0.59 0.65 0.72 0.75 0.74 0.74 0.71 0.73 0.77 0.86 0.96 1.02 1.10 1.17 1.23 1.33 1.46 1.71 2.15 2.67 3.18 3.59 3.66 3.66
0.80 0.84 0.92 1.04 1.13 1.20 1.28 1.19 1.12 1.17 1.17 1.17 0.96 0.75 0.69 0.71 0.87 0.92 0.90 0.84 0.80 0.73 0.75 0.78 0.89 0.99 1.02 1.04 1.07 1.14 1.26 1.51 1.89 2.39 2.79 3.24 3.50 3.45
0.81 0.81 0.85 1.03 1.25 1.46 1.59 1.54 1.51 1.58 1.53 1.50 1.31 1.07 0.91 0.91 0.99 0.98 1.02 0.92 0.89 0.86 0.82 0.73 0.73 0.74 0.81 0.92 1.00 1.04 1.13 1.28 1.52 1.88 2.34 2.75 3.15 3.41
0.89 0.83 0.81 0.90 1.02 1.20 1.43 1.52 1.63 1.76 1.83 1.79 1.64 1.41 1.08 0.96 1.02 1.19 1.33 1.34 1.18 0.87 0.85 0.82 0.81 0.86 0.82 0.81 0.94 1.00 1.05 1.16 1.36 1.61 1.92 2.26 2.60 3.04
0.80 0.75 0.75 0.75 0.82 0.79 0.94 1.04 1.14 1.34 1.59 1.77 1.86 1.52 1.22 1.10 1.30 1.53 1.57 1.55 1.30 1.06 1.13 1.20 1.00 0.97 0.90 0.96 1.10 1.03 1.07 1.17 1.29 1.45 1.67 1.96 2.22 2.55
0.71 0.73 0.75 0.73 0.73 0.82 0.90 0.94 0.88 0.91 1.14 1.40 1.55 1.41 1.32 1.34 1.57 1.87 2.02 2.07 1.71 1.34 1.34 1.56 1.20 1.04 0.96 0.97 1.15 1.10 1.07 1.15 1.25 1.37 1.51 1.66 1.88 2.19
0.72 0.84 0.89 0.80 0.85 1.05 1.18 1.14 0.95 0.81 0.89 1.22 1.50 1.55 1.60 1.80 2.05 2.44 2.72 2.81 2.48 1.79 1.52 1.67 1.43 1.21 1.10 1.04 1.11 1.19 1.17 1.16 1.19 1.30 1.46 1.58 1.72 1.96
0.73 0.86 1.13 1.10 1.10 1.19 1.25 1.28 1.22 0.93 0.84 0.90 1.01 1.13 1.17 1.26 1.64 2.01 2.31 2.61 2.57 2.25 1.71 1.68 1.65 1.59 1.65 1.25 1.05 1.00 1.06 1.20 1.25 1.28 1.40 1.54 1.72 1.74
0.86 0.92 1.06 1.16 1.17 1.20 1.27 1.25 1.29 1.24 1.18 1.16 1.09 1.03 1.06 1.18 1.35 1.62 1.89 2.21 2.46 2.29 1.79 1.90 2.05 1.90 1.88 1.54 1.17 1.05 0.97 0.95 1.01 1.16 1.33 1.52 1.69 1.78
0.98 0.89 0.97 1.12 1.18 1.22 1.17 1.19 1.28 1.33 1.26 1.23 1.17 1.08 1.05 1.11 1.17 1.33 1.59 1.76 1.92 1.99 1.80 1.98 2.31 2.11 2.04 1.72 1.32 1.19 1.10 1.03 0.97 1.02 1.13 1.46 1.65 1.78
1.04 1.19 1.16 1.13 1.09 1.03 1.03 1.09 1.11 1.08 1.13 1.12 1.02 0.91 0.86 0.91 1.02 1.19 1.37 1.55 1.69 1.77 1.81 1.83 1.97 2.03 2.17 2.03 1.50 1.25 1.26 1.25 1.14 1.10 1.16 1.27 1.40 1.56
1.05 1.14 1.15 1.04 0.93 0.89 0.92 0.93 0.92 0.99 1.10 1.10 0.98 0.87 0.82 0.89 1.01 1.11 1.29 1.44 1.69 1.72 1.67 1.71 1.84 2.13 2.32 1.99 1.72 1.48 1.29 1.41 1.36 1.27 1.26 1.28 1.32 1.37
1.27 1.25 1.14 1.00 0.91 0.83 0.79 0.76 0.78 0.90 1.02 1.01 1.02 1.01 0.97 0.99 1.02 1.05 1.23 1.39 1.59 1.56 1.55 1.66 1.82 2.03 2.25 2.25 2.14 1.72 1.44 1.38 1.41 1.43 1.41 1.42 1.42 1.41
1.29 1.21 1.02 0.90 0.86 0.81 0.80 0.80 0.78 0.81 0.86 0.93 1.00 1.02 1.04 1.06 1.05 1.05 1.21 1.38 1.45 1.41 1.44 1.56 1.84 2.25 2.52 2.55 2.24 1.90 1.62 1.51 1.56 1.62 1.53 1.49 1.46 1.37
1.06 0.95 0.86 0.84 0.81 0.79 0.80 0.81 0.78 0.74 0.79 0.91 0.99 1.02 1.06 1.10 1.11 1.11 1.16 1.27 1.32 1.33 1.39 1.51 1.80 2.27 2.49 2.33 2.19 1.94 1.76 1.62 1.67 1.84 1.75 1.50 1.40 1.31
0.84 0.85 0.83 0.81 0.79 0.79 0.80 0.81 0.79 0.77 0.81 0.87 0.92 0.95 1.01 1.10 1.12 1.06 1.07 1.19 1.28 1.33 1.40 1.50 1.73 2.05 2.31 2.06 1.96 2.00 1.91 1.82 1.82 1.95 1.86 1.59 1.46 1.50
0.75 0.77 0.77 0.80 0.82 0.80 0.79 0.78 0.81 0.83 0.80 0.83 0.85 0.86 0.91 1.02 1.05 0.97 1.00 1.10 1.30 1.41 1.43 1.42 1.55 1.81 2.10 2.21 2.19 2.05 2.01 2.00 1.92 1.98 1.92 1.83 1.75 1.68
0.74 0.77 0.75 0.76 0.81 0.82 0.81 0.80 0.82 0.81 0.78 0.79 0.80 0.81 0.85 0.96 1.00 0.95 1.01 1.12 1.20 1.27 1.30 1.34 1.47 1.82 2.26 2.41 2.21 1.98 1.98 2.06 2.16 2.08 2.00 1.92 2.00 1.98
0.83 0.81 0.75 0.71 0.73 0.78 0.82 0.81 0.81 0.76 0.73 0.79 0.82 0.82 0.85 0.93 0.93 0.98 1.02 1.07 1.16 1.21 1.27 1.41 1.58 1.84 2.09 2.09 2.07 1.98 1.88 1.88 1.98 2.09 2.30 2.05 1.66 1.48